Regional Weather Roundup
Issued by NWS

Home | Current Version | Previous Version | Text Only | Print | Product List | Glossary Off
Versions: 1 2 3 4 5 6 7 8 9 10 11 12 13 14 15 16 17 18 19 20 21 22 23 24 25 26 27 28 29 30 31 32 33 34 35 36 37 38 39 40 41 42 43 44 45 46 47 48 49 50

000
ASUS43 KFSD 040202
RWRSD

WEATHER ROUNDUP FOR SOUTH DAKOTA
NATIONAL WEATHER SERVICE SIOUX FALLS SD
900 PM CDT SUN MAY 03 2015

NOTE: "FAIR" INDICATES FEW OR NO CLOUDS BELOW 12,000 FEET WITH NO
SIGNIFICANT WEATHER AND/OR OBSTRUCTIONS TO VISIBILITY.


SDZ001>005-009-010-012>017-040300-
NORTHWEST AND NORTH CENTRAL SOUTH DAKOTA

CITY           SKY/WX    TMP DP  RH WIND       PRES   REMARKS
BUFFALO          N/A     53  36  52 S9        29.99R
FAITH            N/A     57  25  29 SE6       30.04R
MOBRIDGE       CLEAR     56  23  27 N12       30.00R
$$

SDZ012>016-024>037-041>051-057-063-072>074-040300-
SOUTHWEST AND SOUTH CENTRAL SOUTH DAKOTA

CITY           SKY/WX    TMP DP  RH WIND       PRES   REMARKS
RAPID CTY ARPT PTCLDY    55  34  45 NE9       30.03S
PIERRE         CLEAR     59  27  29 N8        30.00R
CUSTER         PTCLDY    50  34  54 E7        30.09R
ELLSWORTH AFB  PTCLDY    60  35  39 NE7       30.03R
PHILIP         PTCLDY    60  30  32 NE10      30.02R
PINE RIDGE     MOCLDY    60  36  40 E8        30.02R
WINNER         FAIR      61  32  33 NE12      29.98R
$$

SDZ004>011-016>023-039-040-040300-
NORTHEAST SOUTH DAKOTA

CITY           SKY/WX    TMP DP  RH WIND       PRES   REMARKS
ABERDEEN       CLEAR     58  22  24 N10       29.98R
WATERTOWN      CLEAR     52  30  43 N7        29.95R
BROOKINGS      CLEAR     61  30  31 N15       29.93R
SISSETON         N/A     56  26  31 NW6       29.93R
$$

SDZ017-020-022-023-036>040-048>070-040300-
SOUTHEAST SOUTH DAKOTA

CITY           SKY/WX    TMP DP  RH WIND       PRES   REMARKS
SIOUX FALLS    PTCLDY    66  36  32 N12       29.90R
HURON          CLEAR     61  28  28 N10       29.96R
MITCHELL       CLEAR     64  36  35 N16       29.93R
YANKTON        CLEAR     66  37  34 NE9       29.90R
$$

ABBREVIATIONS USED IN REMARKS
   TC - TEMPERATURE IN CELSIUS
  WCI - WIND CHILL INDEX
   HX - HEAT INDEX
  VSB - VISIBILITY



USA.gov is the U.S. government's official web portal to all federal, state and local government web resources and services.